Temperature
15 15 16 16 16 17 18 21 23 23 23 23 23 23 22 21 21 18 16 16 16 16 16 16 16 16 16 16 16 16 16 15 15 15 15 15 15 15 15 15 15 15 15 15 15 15 15 15 15
15 15 16 17 16 17 19 21 22 23 22 21 21 21 21 20 18 17 16 16 15 15 15 15 16 16 16 16 16 15 15 15 15 15 15 15 15 15 15 15 15 15 15 15 15 15 15 15 15
15 15 16 16 17 18 20 22 22 21 21 21 21 21 20 19 17 16 16 15 15 15 15 15 15 15 15 15 15 15 15 15 15 15 15 15 15 15 15 14 14 14 15 15 15 15 15 15 15
14 15 16 16 17 19 21 22 21 21 20 20 21 20 18 17 17 16 15 15 15 15 15 15 15 15 15 15 15 15 15 15 15 15 15 15 14 14 14 14 14 14 14 14 15 15 15 15 15
14 16 16 16 17 19 21 22 21 20 20 20 20 19 17 16 16 16 15 15 15 14 14 14 14 15 15 15 15 15 15 15 15 15 14 14 14 14 14 14 14 14 14 14 14 14 14 14 14
15 16 15 16 18 20 21 21 21 20 20 20 20 19 16 16 16 15 15 14 14 14 14 14 14 14 14 14 14 14 14 14 14 14 14 14 14 14 14 14 14 14 14 14 14 14 14 14 14
15 15 15 17 18 19 20 21 20 19 19 20 19 18 16 15 15 15 14 14 14 14 14 14 14 14 14 14 14 14 14 14 14 14 14 14 14 14 14 14 13 13 14 14 14 14 14 14 14
14 15 16 17 18 19 20 20 19 19 19 19 19 17 16 15 14 14 14 14 14 14 14 13 14 14 14 14 14 14 13 14 13 13 13 13 13 13 13 13 13 13 13 13 14 14 14 14 14
14 14 14 17 18 18 19 19 18 18 18 18 17 16 15 15 14 13 13 13 13 13 13 13 13 13 13 13 13 13 13 13 13 13 13 13 13 13 13 13 13 13 13 13 13 13 13 13 13
14 13 15 17 17 17 18 18 18 17 16 17 16 15 15 14 14 13 13 13 13 13 13 13 13 13 13 13 13 13 13 12 12 12 13 12 12 12 13 13 13 13 13 13 13 13 13 13 13
14 14 15 16 17 17 16 16 17 16 15 16 16 15 14 14 13 13 13 13 12 12 12 12 13 13 13 12 12 12 12 12 12 12 12 12 12 12 12 12 12 12 12 12 12 12 12 12 12
14 14 15 15 15 15 15 16 16 16 16 16 16 15 14 13 13 13 13 12 12 12 12 12 12 12 12 12 12 12 12 12 12 12 12 12 12 11 11 12 12 12 12 12 12 12 12 12 12
14 14 14 14 14 14 14 14 14 15 15 15 15 14 14 13 13 13 12 12 12 12 12 12 12 12 12 12 12 12 12 12 12 11 11 11 11 11 11 11 11 11 11 11 11 11 11 11 11
14 14 14 14 14 14 13 13 14 14 14 14 14 14 13 13 13 12 12 12 11 12 12 12 12 12 12 12 12 12 11 11 11 11 11 11 11 11 11 11 11 11 11 11 11 11 11 11 11
13 12 13 13 13 13 13 12 13 14 14 14 14 14 13 13 12 12 12 11 11 11 11 11 11 11 11 11 11 11 11 11 11 11 11 11 11 11 11 10 10 10 10 10 10 10 10 10 10
12 12 11 13 13 13 12 11 13 14 14 14 14 14 13 13 12 12 12 11 11 11 11 11 11 11 11 11 11 11 11 11 11 11 11 11 10 10 10 10 10 10 10 10 10 10 10 10 10
11 10 11 12 13 13 12 11 13 14 14 14 14 13 13 13 12 12 11 11 11 10 11 11 11 11 10 10 10 10 10 10 10 10 10 10 10 10 10 10 10 10 10 10 9 9 9 9 9
10 10 11 12 13 12 11 11 13 14 14 14 14 13 13 12 12 12 11 11 10 10 10 10 10 10 10 10 10 10 10 10 10 10 10 10 10 10 10 10 9 9 9 9 9 9 9 9 9
11 11 11 12 13 12 11 11 12 13 13 13 13 13 12 12 11 11 11 10 10 10 10 10 10 10 10 10 9 9 9 9 9 10 9 9 9 9 9 9 9 9 9 9 9 9 9 8 8
10 10 10 11 12 12 11 11 12 12 12 12 12 12 12 11 11 10 10 10 9 9 9 9 9 10 10 10 9 9 9 9 9 9 9 9 9 9 9 9 9 9 9 9 9 8 8 8 8
9 9 9 10 11 11 10 9 11 11 12 12 12 11 11 10 10 10 9 9 9 9 9 9 9 9 9 9 9 9 9 8 8 8 8 9 9 9 9 9 9 9 8 8 8 8 8 8 8
8 9 9 9 8 8 9 7 9 10 10 10 10 10 10 9 9 9 9 8 8 8 8 8 8 9 9 9 9 8 8 8 8 8 8 8 8 8 8 8 8 8 8 8 8 8 8 8 7
8 9 9 9 8 7 8 7 8 10 9 10 9 10 9 9 9 8 8 8 8 8 8 8 8 8 8 8 8 8 8 8 8 8 8 8 8 8 8 8 8 8 8 8 8 7 7 7 7
8 8 8 8 7 6 7 7 7 8 9 9 9 9 9 8 8 8 8 7 7 7 7 7 7 7 7 8 8 8 8 8 7 7 7 7 7 7 7 7 7 7 7 7 7 7 7 7 7
7 6 5 5 5 6 9 8 7 9 9 9 8 8 8 7 7 7 7 6 6 6 6 7 7 7 7 7 7 7 7 7 7 7 7 7 7 7 7 7 7 7 7 7 7 7 7 7 7
6 6 5 5 6 7 8 7 7 9 9 8 8 8 7 7 6 6 6 6 6 6 6 6 6 7 7 7 7 7 7 7 7 6 6 6 7 7 7 7 7 7 7 7 6 6 6 6 6
5 5 7 6 5 6 7 7 7 7 7 7 6 6 6 6 5 5 5 5 5 5 5 6 6 6 6 6 6 6 6 6 6 6 6 6 6 6 6 7 6 6 6 6 6 6 6 6 6
5 5 5 5 5 5 6 6 5 5 5 5 5 5 5 5 4 4 4 4 4 4 5 5 5 5 6 5 6 6 6 6 6 6 6 6 6 6 6 6 6 6 6 6 6 6 6 5 5
4 4 4 5 5 5 5 5 6 5 5 4 4 5 4 4 4 3 3 3 3 4 4 4 5 5 5 5 5 5 5 5 5 5 5 5 5 5 5 5 6 6 6 5 5 5 5 5 5
4 4 3 3 3 4 3 4 6 5 5 4 4 4 3 3 3 3 2 2 3 3 3 4 4 4 5 5 5 5 5 5 5 5 5 5 5 5 5 5 5 5 5 5 5 5 5 5 4
Wind_Speed
11 11 6 2 3 5 8 7 5 1 2 4 6 4 4 4 4 7 5 7 10 11 14 15 15 14 12 12 11 11 11 10 10 10 10 10 10 10 10 9 10 10 10 10 10 10 10 10 11
10 5 4 3 4 6 7 8 7 1 5 6 5 3 3 4 7 8 6 7 9 10 13 14 14 13 13 12 11 11 11 11 10 11 10 10 10 10 10 9 10 10 10 10 10 10 10 10 10
8 5 4 4 5 7 5 1 3 5 8 4 3 1 2 3 6 6 7 7 8 9 12 14 14 13 12 12 11 11 11 10 10 10 10 10 10 10 10 10 9 10 10 10 10 10 10 10 10
4 3 4 5 11 9 7 2 5 5 4 2 3 3 3 5 4 7 9 7 8 9 12 14 14 13 12 12 11 11 10 10 10 10 10 10 10 10 9 9 9 9 9 9 9 10 10 10 9
3 4 5 8 12 10 7 2 2 3 5 5 4 2 4 5 9 9 7 7 8 9 11 14 14 13 12 11 11 11 11 10 10 10 9 10 10 9 9 9 9 9 9 10 10 10 10 10 9
4 4 6 10 11 10 7 3 2 3 4 5 4 2 3 7 8 7 7 6 7 8 10 12 14 13 12 11 11 11 11 10 10 9 9 9 10 9 9 8 8 8 9 10 10 10 10 9 8
4 4 8 10 10 8 6 3 4 5 5 4 4 3 5 6 7 7 7 6 7 8 8 9 11 12 12 11 10 10 10 10 10 9 9 9 10 9 9 8 8 8 8 9 10 10 9 8 7
4 4 8 10 10 8 3 2 1 3 3 1 3 3 4 7 7 7 7 6 6 6 7 7 8 9 10 10 10 10 10 10 10 10 9 9 10 9 9 8 8 8 8 9 9 9 9 8 6
4 5 8 7 7 5 1 2 2 1 2 1 1 3 5 10 8 7 6 5 5 5 6 6 6 7 8 8 10 10 10 10 10 9 10 9 8 8 8 8 8 8 8 8 8 9 8 7 6
5 7 9 5 5 4 1 1 1 2 4 3 2 4 8 8 7 7 7 6 6 5 5 5 5 5 6 6 8 8 8 8 8 8 8 7 7 7 7 7 7 8 8 8 8 8 7 6 4
6 8 7 7 6 5 4 3 3 4 5 6 6 7 8 7 7 7 7 6 6 5 5 5 5 5 5 4 5 5 6 6 7 7 8 7 7 7 7 7 7 7 7 7 7 6 5 4 4
8 9 8 7 5 4 5 4 5 6 6 3 3 6 8 7 7 7 6 5 5 5 5 5 5 4 4 4 4 4 4 4 4 5 6 6 4 4 5 4 5 5 5 5 4 4 4 4 4
13 11 9 8 6 6 7 8 7 8 6 5 3 4 7 7 7 6 5 5 5 5 5 5 5 5 4 4 3 4 4 4 4 5 6 5 4 3 4 4 4 4 4 4 3 3 4 3 4
7 8 9 9 9 8 9 10 9 8 6 6 6 7 8 8 8 7 6 6 5 6 6 5 5 5 4 3 3 3 4 4 5 5 5 5 5 4 3 3 3 3 4 3 3 3 3 3 4
7 8 10 10 10 7 6 10 13 11 8 8 7 8 8 8 8 7 7 6 6 5 6 6 6 5 5 4 4 4 4 5 4 5 5 5 5 5 4 3 2 3 4 3 3 3 3 3 3
7 9 10 9 10 8 7 12 9 8 10 10 8 7 7 7 7 6 6 6 6 5 6 6 6 6 5 4 4 3 4 4 4 5 6 6 6 5 4 3 2 3 4 3 2 2 2 3 3
8 9 11 8 9 8 10 10 6 5 7 9 8 8 7 6 6 6 6 6 5 6 6 6 5 6 5 5 4 4 4 4 4 5 5 6 6 6 5 4 3 3 3 2 2 2 2 3 3
7 9 10 9 6 8 10 10 7 5 7 8 7 7 6 6 5 5 5 5 5 5 5 6 6 6 5 4 4 3 3 3 3 4 4 6 6 6 5 4 4 3 2 2 2 3 3 3 3
9 10 11 9 5 6 10 12 10 8 8 7 6 6 5 5 4 4 5 5 5 5 5 6 6 6 5 4 4 4 4 3 3 3 5 5 5 5 5 4 4 3 3 3 3 3 4 3 3
12 13 11 8 4 5 9 12 10 10 9 7 6 5 4 3 3 3 5 5 5 5 5 5 6 6 6 5 4 4 4 3 3 3 4 5 5 5 5 4 4 4 3 3 3 3 2 2 3
12 11 9 8 6 6 7 8 9 7 7 5 4 3 3 3 3 3 3 4 5 5 6 6 6 6 6 6 4 4 3 3 3 3 3 4 5 5 4 4 4 4 3 3 3 3 3 3 2
10 7 8 8 6 4 4 5 5 5 5 5 4 3 2 2 2 2 3 3 4 4 4 4 5 6 6 7 6 7 6 5 4 4 3 4 4 4 5 5 4 4 4 3 4 3 3 4 3
5 6 8 9 8 7 7 5 5 3 3 4 4 3 3 2 2 3 2 3 4 4 4 4 5 5 5 6 7 7 6 4 4 5 5 4 4 4 5 5 5 4 4 4 4 3 3 3 3
4 5 7 6 5 8 10 8 4 3 3 3 3 3 3 2 2 2 2 2 3 3 3 4 5 5 5 6 6 7 7 6 6 6 6 5 4 4 4 5 5 5 4 4 4 4 4 3 3
3 2 2 3 6 7 7 7 3 2 1 2 3 3 3 4 3 3 2 2 2 2 3 4 5 5 5 5 6 6 7 7 8 7 7 6 4 3 5 4 4 4 4 5 4 4 4 4 4
6 6 5 4 4 3 4 5 2 2 4 6 6 5 5 4 3 3 2 1 1 1 3 4 4 4 4 5 5 6 6 5 5 6 6 6 5 5 5 5 5 5 5 5 4 3 3 3 4
4 6 5 3 4 3 4 3 1 5 6 6 6 6 5 4 4 3 3 2 1 1 1 3 4 4 4 4 5 6 6 6 5 5 6 5 5 5 6 6 5 5 5 5 5 4 4 4 4
4 3 2 3 3 4 4 3 1 2 3 3 4 4 4 4 4 3 3 4 2 1 1 1 2 3 4 4 4 5 5 5 5 5 6 6 6 5 6 6 6 5 5 5 4 4 4 5 4
2 2 2 3 3 3 3 1 4 3 2 3 3 4 4 4 4 3 3 4 2 2 1 1 1 2 3 3 3 4 4 5 5 5 6 6 5 6 6 7 6 6 5 5 5 4 5 5 4
1 1 0 1 2 2 2 1 6 6 5 4 5 6 5 5 4 4 4 4 3 3 2 1 1 0 2 3 3 3 4 4 5 5 5 6 6 6 6 6 6 6 5 5 5 6 5 6 6
Wind_Direction
287 264 253 246 241 231 240 242 247 207 63 42 30 19 4 10 43 106 123 92 106 120 128 135 133 131 128 126 125 124 124 123 121 120 118 116 116 115 113 111 108 106 102 99 97 95 93 92 93
285 267 254 234 237 233 238 225 235 184 90 66 47 10 7 52 73 102 107 99 113 121 128 132 132 131 130 126 125 126 127 126 125 123 120 116 113 110 107 106 107 105 102 99 98 97 94 93 95
268 258 247 228 230 234 251 224 125 86 85 108 125 21 355 64 91 101 107 116 114 115 122 127 130 129 130 128 127 126 126 126 126 123 122 119 115 111 106 101 102 105 103 101 98 98 97 94 96
248 225 243 243 244 245 263 350 73 100 104 145 156 132 92 46 69 99 113 121 116 112 116 128 132 130 128 127 128 128 127 128 127 124 124 121 118 113 109 103 99 102 104 104 102 102 101 98 97
240 237 229 236 244 251 262 273 102 169 168 181 199 160 107 87 88 101 113 118 113 111 115 129 133 131 129 128 129 130 129 129 128 127 127 123 120 118 113 108 104 104 105 107 107 105 104 100 96
232 231 233 236 241 240 237 223 176 223 205 172 181 198 118 114 112 115 111 110 109 111 116 128 136 135 132 131 130 130 130 130 129 129 129 127 123 121 116 111 110 108 109 112 108 106 105 102 98
246 237 243 252 253 246 229 183 196 213 226 188 152 160 130 123 123 121 118 115 109 113 118 127 136 138 138 136 135 135 134 133 132 131 127 124 124 122 119 116 114 115 115 117 114 112 111 110 104
263 267 248 246 252 255 242 170 171 249 247 195 148 174 149 142 128 124 125 126 119 119 122 128 134 135 136 139 141 140 139 140 138 136 131 128 128 126 126 123 121 122 119 121 121 120 117 112 110
261 247 243 241 248 253 185 183 168 52 295 266 118 72 107 125 129 134 135 132 131 127 126 126 127 128 134 141 146 144 143 146 145 142 143 138 134 128 123 126 124 128 127 126 127 127 127 124 121
218 234 238 263 292 301 328 215 189 173 229 218 151 107 124 135 147 157 158 158 156 150 139 129 130 129 132 139 140 146 147 149 149 146 148 145 132 130 130 131 137 140 140 137 137 139 142 142 145
214 236 250 269 293 318 312 275 252 222 232 220 191 168 157 161 169 175 173 168 164 156 149 137 136 131 130 127 136 141 143 150 153 158 156 142 132 132 131 134 140 144 142 140 144 148 152 144 133
235 245 254 267 288 295 280 268 256 242 243 256 208 165 164 175 186 187 182 170 157 155 158 147 139 134 131 129 132 131 124 126 129 143 148 140 131 130 132 132 139 141 136 138 152 154 144 141 135
234 244 250 260 267 262 267 260 260 252 258 273 254 178 179 192 194 191 182 171 160 162 161 152 144 144 141 132 138 129 124 129 131 140 146 137 127 131 123 119 125 129 134 144 144 138 134 128 109
248 252 253 250 250 249 249 253 242 239 227 230 222 200 199 199 196 188 180 178 175 167 161 153 149 147 146 147 147 133 127 130 127 128 139 140 128 119 122 116 112 122 128 131 129 119 121 111 103
262 265 260 242 233 230 240 252 234 231 223 222 218 206 203 203 194 190 183 177 173 165 157 159 160 154 156 153 154 137 135 134 126 130 138 136 130 127 125 127 128 128 137 135 118 113 106 102 98
244 242 245 230 212 205 208 251 243 215 210 220 218 213 204 202 192 186 178 170 170 165 160 163 167 161 162 154 152 137 133 130 130 139 145 149 145 141 129 132 141 144 142 131 123 126 115 106 101
226 234 240 239 204 198 211 249 248 218 216 222 219 214 207 197 196 190 175 165 167 169 165 162 156 160 163 155 148 139 132 127 128 136 142 151 150 150 138 136 145 148 129 127 147 123 126 121 112
225 236 247 242 213 217 226 246 253 248 235 230 219 212 202 196 199 186 169 164 163 165 163 164 161 160 163 153 146 140 134 135 123 131 140 149 154 157 145 141 149 146 138 144 142 137 124 119 122
257 260 260 259 245 235 240 250 251 249 242 235 225 212 205 201 190 169 160 158 159 162 165 167 166 166 161 163 164 162 164 162 157 140 144 145 154 159 148 149 152 153 158 160 152 141 135 129 117
256 259 266 276 263 256 260 260 254 242 234 223 215 207 191 182 184 165 160 165 170 174 177 173 172 170 169 171 170 165 157 162 162 154 144 152 156 162 156 152 161 155 155 155 151 140 140 146 134
254 253 260 270 284 258 267 270 244 237 235 226 210 196 179 179 186 179 174 172 168 176 182 184 177 172 171 166 158 154 147 146 157 164 166 162 161 165 156 155 152 155 159 165 162 161 149 166 174
258 261 268 266 264 253 224 271 250 228 223 219 202 187 176 176 179 180 176 174 175 183 180 179 176 173 174 171 171 172 175 174 174 168 169 167 157 157 159 154 154 157 159 170 175 165 158 160 178
264 300 276 254 249 256 236 242 263 208 224 214 192 183 179 177 180 175 169 172 174 174 172 172 170 175 178 179 177 177 183 176 158 160 163 167 164 165 165 157 159 164 165 170 172 164 168 167 174
264 283 281 256 234 241 223 215 260 217 222 207 173 158 147 121 96 107 108 126 150 154 161 165 166 175 179 180 180 183 185 175 166 167 169 173 174 172 168 162 164 166 166 169 173 176 173 172 170
228 219 238 220 215 231 208 203 233 215 147 112 115 107 97 89 75 69 84 100 123 151 162 167 168 175 180 181 183 186 187 181 178 175 174 175 177 176 182 174 172 170 168 164 163 172 178 171 169
228 218 217 224 231 246 206 206 196 83 70 60 64 72 67 68 67 60 69 83 122 137 168 169 171 174 177 181 185 184 186 184 183 176 171 177 181 182 182 177 173 168 166 166 163 172 178 167 168
240 230 255 276 282 270 223 187 163 60 54 43 43 51 48 52 54 45 34 33 80 123 182 172 171 175 179 186 187 182 183 182 178 171 166 171 171 176 176 173 171 168 166 167 166 175 177 169 171
264 272 250 222 232 243 246 218 246 22 28 34 27 21 20 40 35 32 26 14 13 61 141 136 148 173 177 187 191 182 177 179 175 172 169 168 169 168 170 172 171 168 167 170 171 173 174 168 173
276 265 255 245 254 248 261 300 20 38 59 48 19 17 16 22 19 19 15 4 9 38 71 114 126 160 175 180 183 173 171 170 171 175 171 165 165 166 170 172 172 168 171 173 169 170 172 171 173
334 295 265 228 271 272 281 300 14 28 40 40 21 15 9 10 13 18 14 9 18 29 27 56 69 135 179 168 175 175 169 171 170 171 169 165 167 169 170 168 168 169 169 171 173 176 178 176 179
Height
1498 1499 1501 1504 1506 1506 1500 1487 1478 1478 1480 1482 1484 1485 1487 1491 1495 1507 1507 1506 1506 1507 1509 1511 1513 1515 1517 1519 1521 1523 1525 1527 1528 1530 1531 1532 1534 1535 1536 1537 1538 1539 1540 1541 1542 1543 1544 1545 1546
1497 1500 1503 1503 1505 1506 1495 1483 1480 1478 1481 1484 1487 1489 1490 1494 1497 1501 1503 1505 1506 1507 1509 1511 1513 1515 1517 1519 1521 1523 1525 1527 1528 1530 1531 1533 1534 1535 1536 1538 1539 1540 1541 1542 1543 1544 1545 1546 1546
1497 1500 1502 1500 1499 1497 1487 1476 1476 1479 1482 1486 1489 1491 1493 1496 1498 1500 1502 1504 1506 1507 1509 1510 1513 1515 1517 1519 1521 1523 1525 1526 1528 1530 1531 1533 1534 1535 1537 1538 1539 1540 1541 1542 1543 1544 1545 1546 1547
1498 1501 1501 1500 1495 1485 1480 1477 1477 1481 1485 1487 1489 1492 1495 1498 1499 1500 1502 1504 1506 1507 1508 1510 1513 1515 1517 1519 1520 1522 1524 1526 1528 1529 1531 1532 1534 1535 1537 1538 1539 1540 1541 1542 1543 1544 1546 1547 1548
1498 1499 1499 1497 1490 1482 1477 1476 1479 1482 1485 1487 1489 1491 1495 1498 1498 1499 1502 1504 1506 1506 1508 1510 1512 1514 1516 1518 1520 1522 1524 1525 1527 1529 1530 1532 1534 1535 1536 1538 1539 1540 1541 1543 1544 1545 1546 1547 1549
1497 1495 1497 1494 1485 1478 1476 1477 1479 1482 1484 1486 1489 1491 1495 1497 1497 1499 1501 1503 1505 1506 1507 1509 1511 1514 1516 1518 1519 1521 1523 1524 1526 1528 1530 1531 1533 1534 1536 1537 1539 1540 1541 1543 1544 1545 1546 1548 1549
1496 1493 1491 1486 1482 1477 1475 1476 1479 1481 1483 1485 1487 1490 1493 1495 1497 1499 1500 1502 1504 1506 1507 1508 1511 1513 1515 1517 1518 1520 1522 1524 1525 1527 1529 1530 1532 1534 1535 1537 1538 1540 1541 1543 1544 1545 1546 1548 1549
1492 1491 1486 1483 1480 1477 1474 1475 1478 1481 1483 1485 1487 1489 1491 1494 1495 1498 1500 1502 1504 1505 1506 1508 1510 1511 1513 1515 1517 1519 1521 1522 1524 1526 1528 1529 1531 1533 1534 1536 1538 1539 1541 1542 1543 1545 1546 1548 1549
1490 1492 1486 1480 1477 1475 1474 1476 1479 1481 1483 1484 1486 1488 1489 1491 1494 1496 1499 1501 1502 1504 1505 1507 1508 1510 1512 1514 1516 1518 1520 1521 1523 1525 1527 1528 1530 1531 1533 1535 1537 1538 1540 1542 1543 1544 1546 1547 1549
1488 1488 1480 1476 1474 1474 1474 1476 1478 1481 1482 1484 1485 1487 1489 1490 1492 1494 1496 1498 1500 1502 1504 1505 1507 1509 1511 1512 1514 1516 1518 1520 1522 1523 1525 1527 1529 1530 1532 1534 1536 1537 1539 1541 1542 1544 1545 1547 1548
1482 1480 1477 1476 1475 1475 1476 1477 1478 1480 1481 1482 1483 1485 1487 1489 1491 1493 1494 1496 1498 1500 1502 1504 1505 1507 1509 1511 1513 1514 1516 1518 1520 1522 1524 1525 1527 1529 1530 1532 1534 1536 1538 1539 1541 1543 1544 1546 1547
1477 1475 1476 1475 1475 1476 1476 1477 1478 1478 1479 1480 1481 1482 1484 1486 1488 1490 1492 1494 1496 1498 1500 1501 1503 1505 1507 1509 1510 1512 1514 1516 1518 1520 1522 1524 1525 1527 1529 1530 1532 1534 1536 1538 1540 1541 1543 1545 1546
1474 1473 1474 1474 1475 1475 1476 1476 1476 1475 1477 1478 1479 1480 1482 1484 1486 1488 1490 1492 1494 1495 1497 1499 1500 1502 1505 1507 1508 1510 1512 1514 1516 1518 1520 1522 1523 1525 1527 1529 1531 1533 1535 1537 1538 1540 1542 1544 1545
1471 1471 1472 1472 1473 1473 1474 1473 1474 1471 1474 1475 1476 1478 1479 1481 1483 1485 1487 1489 1491 1492 1494 1496 1498 1500 1502 1504 1506 1508 1510 1512 1514 1516 1518 1520 1521 1523 1525 1527 1529 1531 1533 1535 1537 1539 1541 1542 1544
1471 1471 1470 1468 1469 1470 1473 1471 1468 1468 1471 1472 1473 1475 1476 1478 1480 1482 1483 1485 1487 1489 1491 1493 1495 1497 1499 1501 1503 1505 1507 1509 1511 1513 1516 1518 1519 1521 1523 1525 1527 1529 1531 1533 1535 1537 1539 1541 1542
1469 1470 1470 1463 1464 1466 1473 1469 1462 1463 1466 1467 1469 1471 1473 1475 1476 1478 1480 1482 1484 1486 1488 1490 1492 1494 1496 1499 1501 1503 1505 1507 1509 1511 1513 1515 1517 1519 1521 1523 1525 1527 1529 1531 1533 1535 1537 1538 1540
1468 1468 1464 1461 1459 1461 1466 1464 1459 1459 1461 1463 1465 1467 1469 1471 1473 1475 1477 1479 1481 1483 1485 1487 1489 1491 1493 1496 1498 1500 1502 1504 1506 1508 1510 1512 1514 1516 1518 1520 1522 1525 1527 1529 1531 1533 1535 1536 1538
1465 1463 1459 1459 1456 1458 1460 1459 1457 1457 1458 1459 1461 1463 1465 1467 1469 1472 1474 1475 1478 1480 1482 1484 1486 1488 1491 1493 1495 1497 1499 1501 1503 1505 1507 1509 1511 1513 1516 1517 1520 1522 1525 1527 1529 1531 1533 1534 1536
1459 1459 1458 1454 1453 1456 1456 1456 1454 1454 1455 1456 1457 1459 1461 1464 1466 1468 1470 1472 1474 1476 1478 1480 1482 1484 1487 1489 1491 1493 1495 1498 1500 1502 1504 1507 1509 1511 1513 1515 1517 1519 1522 1524 1526 1528 1530 1532 1534
1459 1459 1457 1454 1452 1454 1454 1452 1450 1450 1451 1452 1454 1456 1458 1461 1463 1465 1467 1469 1471 1472 1474 1476 1478 1481 1483 1486 1488 1490 1492 1495 1497 1499 1501 1504 1506 1508 1510 1512 1514 1516 1519 1521 1523 1525 1527 1529 1531
1457 1458 1457 1457 1454 1453 1455 1453 1448 1446 1447 1449 1451 1453 1455 1458 1460 1462 1463 1465 1467 1469 1470 1472 1474 1477 1480 1482 1485 1487 1489 1492 1494 1496 1498 1500 1503 1505 1507 1509 1511 1513 1516 1518 1520 1522 1524 1526 1528
1458 1454 1455 1456 1460 1461 1457 1463 1447 1444 1445 1446 1448 1450 1452 1455 1457 1459 1460 1462 1463 1465 1467 1469 1470 1473 1476 1478 1481 1483 1484 1486 1489 1492 1495 1497 1499 1502 1504 1506 1508 1511 1513 1515 1517 1519 1521 1523 1525
1456 1455 1455 1455 1457 1460 1457 1462 1451 1442 1445 1445 1446 1448 1450 1453 1455 1456 1458 1459 1460 1462 1463 1465 1467 1469 1472 1474 1477 1479 1481 1484 1486 1489 1491 1493 1496 1498 1501 1503 1505 1507 1509 1512 1514 1516 1518 1520 1522
1455 1457 1455 1453 1457 1462 1453 1457 1451 1446 1443 1443 1444 1446 1449 1451 1453 1454 1455 1456 1457 1459 1460 1462 1464 1466 1468 1470 1473 1475 1478 1480 1482 1484 1487 1489 1492 1495 1497 1499 1502 1504 1506 1508 1511 1513 1515 1517 1519
1456 1461 1465 1462 1461 1454 1441 1447 1451 1442 1440 1441 1443 1445 1447 1449 1451 1452 1452 1453 1454 1455 1457 1459 1460 1462 1464 1466 1469 1471 1474 1476 1478 1480 1483 1485 1488 1490 1493 1495 1498 1500 1502 1505 1507 1509 1511 1513 1515
1456 1457 1463 1462 1454 1447 1441 1446 1447 1441 1441 1443 1444 1446 1447 1449 1450 1451 1451 1451 1452 1453 1454 1456 1457 1459 1461 1463 1465 1467 1470 1472 1474 1477 1479 1482 1484 1486 1489 1492 1494 1497 1499 1501 1503 1506 1507 1509 1511
1455 1455 1451 1455 1454 1453 1444 1444 1442 1442 1443 1445 1446 1447 1448 1449 1450 1450 1450 1450 1450 1451 1452 1453 1454 1456 1457 1459 1461 1463 1466 1468 1470 1473 1476 1478 1480 1483 1486 1488 1491 1493 1495 1497 1500 1502 1503 1505 1507
1455 1453 1455 1457 1456 1452 1444 1445 1450 1447 1447 1448 1448 1449 1449 1449 1449 1449 1449 1449 1449 1449 1449 1450 1451 1453 1454 1456 1458 1460 1462 1465 1467 1470 1473 1475 1477 1480 1482 1484 1487 1489 1491 1493 1496 1498 1500 1501 1503
1456 1456 1454 1454 1451 1453 1453 1455 1447 1447 1448 1449 1450 1450 1450 1449 1449 1449 1448 1448 1447 1447 1447 1448 1449 1450 1452 1453 1455 1457 1459 1462 1464 1467 1470 1472 1474 1476 1478 1480 1483 1485 1487 1489 1491 1493 1496 1497 1499
1456 1456 1458 1462 1458 1454 1459 1461 1449 1449 1449 1450 1451 1451 1451 1450 1449 1448 1448 1447 1446 1445 1445 1446 1447 1448 1449 1451 1453 1454 1456 1459 1461 1463 1466 1469 1471 1473 1475 1477 1479 1481 1483 1486 1488 1490 1492 1493 1495